Location: Igon
(43.1667°N, 0.2333°W)
Time: 09:44:39
(UTC+00:00)

Cosmos 1328 Rocket - Pass Details

Date: 29 November 2020
Orbit: 601 x 627 km, 82.5° (Epoch: 23 January)

Event Time Altitude Azimuth Distance (km) Brightness Sun altitude
Exits shadow 04:35:41 45° 47° (NE) 859 4.4 -27.7°
Maximum altitude 04:36:23 50° 78° (ENE) 803 4.4 -27.6°
Drops below altitude 10° 04:40:41 10° 154° (SSE) 1,994 6.5 -26.8°
Sets 04:42:58 0° 160° (SSE) 2,898 7.3 -26.4°
